[[{"header":{"parameterUnit":"m.s-1","parameterCategory":1,"la1":30.2991,"la2":30.254,"lo1":-89.0895,"lo2":-89.0444,"dx":0.0017,"dy":0.0017,"nx":28,"ny":28,"refTime":"2022-11-07T03:00:00:Z","depth":0,"parameterNumber":2,"parameterNumberName":"U-component_of_WINDS"},"data":[0,0,0,0,0,0,0,0,0,0,0,0,0,0,0,0,0,0,0,0,0,0,0,0,0,0,0,0,0,0,0,0,0,0,0,0,0,0,0,0,0,0,0,0,0,0,0,0,0,0,0,0,0,0,0,0,0,0,-1.6754,-1.6755,0,-1.6846,-1.6847,-1.6848,-1.6832,-1.6831,-1.6829,-1.6828,-1.6924,-1.6928,-1.6932,0,0,0,0,0,0,0,0,0,0,0,0,0,-1.6568,-1.6571,-1.6754,-1.6756,-1.6757,-1.6846,-1.6847,-1.6848,-1.6833,-1.6831,-1.6829,-1.6827,-1.6922,-1.6927,-1.6932,0,0,0,0,0,0,0,0,0,0,0,0,0,-1.6653,-1.6572,-1.6754,-1.676,-1.6761,-1.6846,-1.6847,-1.6849,-1.6833,-1.6831,-1.6828,-1.6826,-1.6921,-1.6927,-1.6933,-1.7018,0,0,-1.6951,-1.6954,0,0,0,0,0,0,0,0,-1.6648,-1.666,-1.6758,-1.6759,-1.6761,-1.6825,-1.6816,-1.6906,-1.6834,-1.6806,-1.6828,-1.6825,-1.6893,-1.6901,-1.6924,-1.7023,-1.7027,-1.6952,-1.6955,-1.6958,-1.696,0,0,0,0,0,0,0,-1.6642,-1.6656,-1.6791,-1.6759,-1.6761,-1.6758,-1.6767,-1.6833,-1.6862,-1.6808,-1.6807,-1.6818,-1.6894,-1.6918,-1.6926,-1.7028,-1.6952,-1.6957,-1.6961,-1.6963,-1.7204,-1.7206,0,0,0,0,0,0,-1.6634,-1.6651,-1.6788,-1.6793,-1.6697,-1.6763,-1.6774,-1.6807,-1.6861,-1.6867,-1.682,-1.6817,-1.6909,-1.6919,-1.6929,-1.7034,-1.6958,-1.6964,-1.6967,-1.7201,-1.7204,-1.7207,0,0,0,0,0,0,-1.6631,-1.6647,-1.6784,-1.6722,-1.6739,-1.6769,-1.6807,-1.681,-1.6835,-1.687,-1.6875,-1.684,-1.6907,-1.6921,-1.6997,-1.7037,-1.6966,-1.6972,-1.7198,-1.7202,-1.7206,-1.7245,0,0,0,0,0,0,-1.6625,-1.6645,-1.6678,-1.6723,-1.6743,-1.6849,-1.6809,-1.6814,-1.6845,-1.6842,-1.689,-1.6896,-1.6906,-1.6988,-1.7003,-1.7045,-1.6977,-1.7194,-1.72,-1.7205,-1.724,-1.725,-1.7258,0,0,0,0,0,-1.6619,-1.6685,-1.668,-1.6696,-1.6784,-1.6852,-1.6863,-1.6874,-1.6848,-1.6882,-1.6904,-1.6894,-1.703,-1.6995,-1.7012,-1.7057,-1.7192,-1.7198,-1.7204,-1.7236,-1.7248,-1.7258,0,0,0,0,0,0,-1.6645,-1.6691,-1.6686,-1.6769,-1.6806,-1.6849,-1.6891,-1.6886,-1.6932,-1.6927,-1.6938,-1.6949,-1.7027,-1.7049,-1.7009,-1.7143,-1.7108,-1.7117,-1.7126,-1.7137,-1.7146,-1.714,-1.6982,0,0,0,0,0,-1.6661,-1.6711,-1.6749,-1.6819,-1.6838,-1.6861,-1.6891,-1.6896,-1.6936,-1.6952,-1.698,-1.702,-1.7071,-1.7105,-1.7155,-1.7242,-1.7253,-1.7281,-1.729,-1.7297,-1.7306,-1.7355,-1.7369,-1.7228,-1.7228,-1.7227,0,0,-1.6693,-1.6725,-1.6756,-1.6825,-1.6855,-1.6908,-1.6875,-1.6932,-1.6972,-1.6961,-1.7034,-1.7057,-1.7101,-1.7184,-1.7221,-1.7205,-1.7347,-1.7305,-1.7311,-1.7316,-1.7363,-1.7377,-1.7388,-1.7232,-1.7231,-1.723,0,0,-1.678,-1.6809,-1.687,-1.6901,-1.6946,-1.6961,-1.6976,-1.7019,-1.7034,-1.7107,-1.71,-1.7148,-1.7236,-1.7269,-1.7297,-1.7396,-1.7389,-1.7412,-1.746,-1.7507,-1.7519,-1.7529,-1.7565,-1.7578,-1.742,-1.7421,-1.7421,0,-1.6815,-1.6895,-1.6903,-1.6962,-1.6993,-1.6984,-1.7047,-1.7076,-1.7135,-1.7157,-1.7137,-1.7249,-1.7278,-1.7369,-1.7393,-1.7416,-1.7434,-1.7407,-1.7516,-1.7526,-1.7536,-1.7571,-1.7585,-1.7423,-1.7423,-1.7423,-1.7422,0,-1.6936,-1.6991,-1.7036,-1.7093,-1.7129,-1.7189,-1.7208,-1.7243,-1.7244,-1.7262,-1.7338,-1.7373,-1.7429,-1.7451,-1.7453,-1.7542,-1.753,-1.7513,-1.7478,-1.7552,-1.7585,-1.7598,-1.7427,-1.7426,-1.7425,-1.7425,0,0,-1.7044,-1.7104,-1.7121,-1.7147,-1.7196,-1.7239,-1.73,-1.7355,-1.7385,-1.7426,-1.7478,-1.7553,-1.7538,-1.757,-1.7575,-1.7617,-1.7695,-1.7595,-1.7596,-1.7613,-1.7797,-1.781,-1.7826,-1.769,-1.7692,-1.7694,-1.7793,0,-1.7136,-1.7243,-1.7252,-1.7348,-1.7399,-1.7392,-1.7444,-1.7481,-1.7498,-1.7545,-1.7565,-1.7619,-1.7593,-1.7613,-1.7654,-1.7677,-1.7732,-1.7669,-1.7739,-1.7742,-1.773,-1.7843,-1.7858,-1.795,-1.7806,-1.7809,-1.781,0,-1.7259,-1.7304,-1.7404,-1.7447,-1.7469,-1.7516,-1.7568,-1.7612,-1.7653,-1.7663,-1.7699,-1.7699,-1.7762,-1.7723,-1.7811,-1.7768,-1.7797,-1.7813,-1.7817,-1.7825,-1.7781,-1.7856,-1.7979,-1.7994,-1.7831,-1.7829,-1.7827,0,-1.7329,-1.7414,-1.7486,-1.7508,-1.7559,-1.7593,-1.7616,-1.7654,-1.7687,-1.7732,-1.7753,-1.7805,-1.7834,-1.7875,-1.7889,-1.7859,-1.7977,-1.7939,-1.7988,-1.7988,-1.8014,-1.8013,-1.8146,-1.803,-1.803,-1.803,-1.803,0,-1.7433,-1.7495,-1.7518,-1.7562,-1.7632,-1.7642,-1.7711,-1.7732,-1.7767,-1.7816,-1.7812,-1.7858,-1.7873,-1.7922,-1.7934,-1.8005,-1.8018,-1.8029,-1.8032,-1.803,-1.8029,-1.8051,-1.8045,-1.8034,-1.8033,-1.8032,-1.8031,0,-1.7524,-1.7541,-1.7619,-1.7661,-1.7672,-1.7722,-1.7758,-1.7801,-1.7818,-1.788,-1.7895,-1.7922,-1.7979,-1.7997,-1.8066,-1.8074,-1.8158,-1.8154,-1.8144,-1.8145,-1.8194,-1.819,-1.8346,-1.8368,-1.8237,-1.8238,-1.8239,0,-1.7589,-1.7637,-1.7684,-1.7716,-1.774,-1.7792,-1.7825,-1.7837,-1.7872,-1.7922,-1.796,-1.8016,-1.8062,-1.8154,-1.818,-1.8234,-1.8232,-1.8283,-1.824,-1.8238,-1.8235,-1.8232,-1.8238,-1.8292,-1.8293,-1.8294,-1.8295,0,-1.7705,-1.7711,-1.7759,-1.781,-1.785,-1.7891,-1.793,-1.7957,-1.7974,-1.8014,-1.8072,-1.8108,-1.8178,-1.8235,-1.8289,-1.8313,-1.8308,-1.8308,-1.8323,-1.8323,-1.8316,-1.8322,-1.8168,-1.8305,-1.8304,-1.8303,-1.8303,-1.8303,-1.7786,-1.7829,-1.7868,-1.7922,-1.7953,-1.799,-1.8032,-1.8054,-1.8103,-1.8161,-1.8165,-1.8228,-1.8269,-1.8341,-1.8368,-1.8418,-1.8403,-1.8424,-1.8429,-1.8435,-1.844,-1.8306,-1.8428,-1.8427,-1.8427,-1.8427,-1.8427,0,-1.7903,-1.7928,-1.7977,-1.8032,-1.8074,-1.8064,-1.8107,-1.8144,-1.82,-1.8237,-1.8283,-1.835,-1.8405,-1.8435,-1.849,-1.8525,-1.8524,-1.8539,-1.8537,-1.8543,-1.8449,-1.8431,-1.8539,-1.8539,-1.8539,-1.8539,-1.8539,-1.8539,-1.7969,-1.804,-1.8051,-1.8139,-1.8163,-1.8225,-1.8251,-1.8285,-1.8315,-1.8391,-1.8436,-1.8455,-1.849,-1.8548,-1.8598,-1.8605,-1.8627,-1.8644,-1.865,-1.8561,-1.855,-1.8539,-1.8523,-1.8648,-1.8648,-1.8741,-1.8741,-1.8742]},{"header":{"parameterUnit":"m.s-1","parameterCategory":1,"la1":30.2991,"la2":30.254,"lo1":-89.0895,"lo2":-89.0444,"dx":0.0017,"dy":0.0017,"nx":28,"ny":28,"refTime":"2022-11-07T03:00:00:Z","depth":0,"parameterNumber":3,"parameterNumberName":"V-component_of_WINDS"},"data":[0,0,0,0,0,0,0,0,0,0,0,0,0,0,0,0,0,0,0,0,0,0,0,0,0,0,0,0,0,0,0,0,0,0,0,0,0,0,0,0,0,0,0,0,0,0,0,0,0,0,0,0,0,0,0,0,0,0,-2.232,-2.232,0,-2.2296,-2.2296,-2.2296,-2.2246,-2.2245,-2.2244,-2.2243,-2.2219,-2.222,-2.222,0,0,0,0,0,0,0,0,0,0,0,0,0,-2.2323,-2.2323,-2.232,-2.232,-2.232,-2.2296,-2.2296,-2.2296,-2.2246,-2.2245,-2.2244,-2.2243,-2.2219,-2.2219,-2.222,0,0,0,0,0,0,0,0,0,0,0,0,0,-2.2313,-2.2323,-2.232,-2.2292,-2.2289,-2.2296,-2.2296,-2.2296,-2.2246,-2.2245,-2.2243,-2.2242,-2.2219,-2.2219,-2.222,-2.2253,0,0,-2.2221,-2.2221,0,0,0,0,0,0,0,0,-2.2313,-2.2313,-2.2296,-2.2294,-2.2291,-2.2272,-2.2288,-2.2281,-2.2247,-2.2263,-2.2243,-2.2241,-2.2238,-2.2237,-2.2236,-2.2252,-2.2251,-2.2221,-2.2222,-2.2222,-2.2222,0,0,0,0,0,0,0,-2.2314,-2.2313,-2.2311,-2.2296,-2.2293,-2.2281,-2.2277,-2.2287,-2.2259,-2.2261,-2.2257,-2.2255,-2.2236,-2.2236,-2.2235,-2.225,-2.2221,-2.2222,-2.2222,-2.2222,-2.2291,-2.2292,0,0,0,0,0,0,-2.2319,-2.2314,-2.2311,-2.231,-2.2299,-2.2282,-2.2278,-2.228,-2.2259,-2.2254,-2.2257,-2.2253,-2.2235,-2.2234,-2.2234,-2.227,-2.2222,-2.2222,-2.2222,-2.2289,-2.2291,-2.2293,0,0,0,0,0,0,-2.2319,-2.2319,-2.2312,-2.2311,-2.2309,-2.2283,-2.2286,-2.228,-2.2279,-2.2255,-2.225,-2.2261,-2.2234,-2.2233,-2.2248,-2.2269,-2.2222,-2.2223,-2.2288,-2.229,-2.2292,-2.2344,0,0,0,0,0,0,-2.2319,-2.2319,-2.2332,-2.2312,-2.231,-2.2327,-2.2287,-2.2281,-2.228,-2.2275,-2.2258,-2.2254,-2.2233,-2.2248,-2.2249,-2.2269,-2.2223,-2.2286,-2.2289,-2.2291,-2.2341,-2.2348,-2.2355,0,0,0,0,0,-2.232,-2.2348,-2.2333,-2.2333,-2.2324,-2.2329,-2.2327,-2.2303,-2.2282,-2.2294,-2.2279,-2.2254,-2.2267,-2.225,-2.225,-2.2271,-2.2284,-2.2288,-2.2291,-2.2338,-2.2347,-2.2355,0,0,0,0,0,0,-2.2371,-2.2345,-2.2328,-2.235,-2.2342,-2.232,-2.2335,-2.2313,-2.2311,-2.2307,-2.2277,-2.2273,-2.2292,-2.2283,-2.2265,-2.2301,-2.2271,-2.2275,-2.2307,-2.2315,-2.2322,-2.2324,-2.2224,0,0,0,0,0,-2.2385,-2.2391,-2.2367,-2.2389,-2.2386,-2.2361,-2.2362,-2.2344,-2.2334,-2.2331,-2.2316,-2.2308,-2.231,-2.2312,-2.2312,-2.2339,-2.2334,-2.2353,-2.236,-2.2366,-2.237,-2.2383,-2.2391,-2.2305,-2.2304,-2.2304,0,0,-2.2414,-2.24,-2.2406,-2.2399,-2.2391,-2.2397,-2.2359,-2.2367,-2.2372,-2.2332,-2.2345,-2.2334,-2.2323,-2.2344,-2.2352,-2.2337,-2.2393,-2.2371,-2.2376,-2.2376,-2.2387,-2.2395,-2.2403,-2.2307,-2.2306,-2.2306,0,0,-2.247,-2.246,-2.2477,-2.2469,-2.2457,-2.244,-2.2444,-2.2426,-2.2417,-2.2429,-2.24,-2.2404,-2.2409,-2.2402,-2.2399,-2.2451,-2.2429,-2.2452,-2.2489,-2.2502,-2.2508,-2.2514,-2.2533,-2.254,-2.2456,-2.2456,-2.2456,0,-2.2508,-2.2516,-2.2489,-2.2499,-2.2497,-2.2461,-2.2478,-2.2472,-2.246,-2.246,-2.2442,-2.2446,-2.2436,-2.2454,-2.2467,-2.2466,-2.247,-2.2454,-2.251,-2.2515,-2.252,-2.2538,-2.2545,-2.2459,-2.2459,-2.2458,-2.2458,0,-2.2563,-2.2569,-2.2584,-2.2574,-2.2573,-2.2587,-2.2561,-2.2564,-2.2546,-2.2531,-2.2544,-2.253,-2.2527,-2.253,-2.2513,-2.2546,-2.2537,-2.2515,-2.2485,-2.2532,-2.2548,-2.2554,-2.2463,-2.2462,-2.2461,-2.2461,0,0,-2.2651,-2.2625,-2.2631,-2.2625,-2.2608,-2.2613,-2.2625,-2.2621,-2.2624,-2.2617,-2.2626,-2.263,-2.261,-2.2606,-2.2587,-2.2599,-2.2641,-2.2575,-2.2574,-2.2588,-2.2676,-2.2693,-2.2701,-2.2625,-2.2627,-2.2627,-2.2677,0,-2.2703,-2.2722,-2.2697,-2.2721,-2.2726,-2.2692,-2.2702,-2.2693,-2.2679,-2.2681,-2.2666,-2.2669,-2.2642,-2.264,-2.2649,-2.2634,-2.2658,-2.263,-2.2633,-2.2634,-2.2637,-2.2709,-2.2727,-2.2774,-2.2683,-2.2684,-2.2685,0,-2.2767,-2.2762,-2.2787,-2.2768,-2.2769,-2.2779,-2.2773,-2.2776,-2.2765,-2.2754,-2.275,-2.2727,-2.2737,-2.2707,-2.272,-2.2702,-2.2702,-2.2694,-2.2695,-2.2695,-2.2662,-2.271,-2.2789,-2.2796,-2.2694,-2.2694,-2.2693,0,-2.2828,-2.2829,-2.2843,-2.2839,-2.2818,-2.2825,-2.2817,-2.2804,-2.2803,-2.2799,-2.2798,-2.2794,-2.2793,-2.279,-2.2767,-2.2748,-2.2783,-2.2752,-2.2774,-2.2775,-2.2783,-2.2783,-2.2863,-2.2784,-2.2783,-2.2783,-2.2783,0,-2.2889,-2.2905,-2.287,-2.2879,-2.2896,-2.2868,-2.2886,-2.2873,-2.2862,-2.2868,-2.2838,-2.2844,-2.2813,-2.2816,-2.2798,-2.2811,-2.281,-2.2802,-2.2797,-2.2805,-2.2806,-2.2804,-2.28,-2.2785,-2.2785,-2.2784,-2.2784,0,-2.2961,-2.2938,-2.2952,-2.293,-2.2925,-2.2938,-2.292,-2.2927,-2.2911,-2.2919,-2.2919,-2.2894,-2.2895,-2.2872,-2.2869,-2.2857,-2.2878,-2.2867,-2.2882,-2.2879,-2.2902,-2.2901,-2.2984,-2.2993,-2.2908,-2.2909,-2.291,0,-2.3001,-2.3013,-2.2992,-2.2994,-2.2987,-2.299,-2.2989,-2.2961,-2.2961,-2.2949,-2.2957,-2.2956,-2.2954,-2.2958,-2.294,-2.2937,-2.2926,-2.2955,-2.2925,-2.2933,-2.2926,-2.2926,-2.2927,-2.2962,-2.2963,-2.2964,-2.2964,0,-2.3075,-2.3063,-2.3063,-2.3058,-2.3058,-2.3053,-2.3046,-2.305,-2.3019,-2.3021,-2.3022,-2.302,-2.3017,-2.3016,-2.301,-2.3001,-2.2978,-2.2974,-2.2979,-2.2987,-2.2995,-2.2991,-2.2899,-2.2972,-2.2971,-2.2971,-2.297,-2.297,-2.3132,-2.3141,-2.3128,-2.3128,-2.312,-2.3114,-2.312,-2.3104,-2.3104,-2.3099,-2.3083,-2.3087,-2.3074,-2.3063,-2.3056,-2.3059,-2.3044,-2.3052,-2.3054,-2.3056,-2.306,-2.2995,-2.3058,-2.3057,-2.3057,-2.3057,-2.3057,0,-2.3205,-2.3194,-2.3195,-2.3186,-2.3186,-2.3164,-2.3155,-2.3157,-2.3161,-2.3151,-2.3149,-2.315,-2.3149,-2.313,-2.3127,-2.3132,-2.3122,-2.3133,-2.3132,-2.313,-2.3074,-2.3069,-2.3141,-2.3141,-2.3141,-2.3141,-2.3141,-2.3141,-2.3242,-2.3255,-2.3242,-2.325,-2.3239,-2.3243,-2.324,-2.3234,-2.3226,-2.3228,-2.3227,-2.3215,-2.3201,-2.3197,-2.3195,-2.3189,-2.3189,-2.3204,-2.3195,-2.3142,-2.3134,-2.3126,-2.3122,-2.3204,-2.3204,-2.3251,-2.3251,-2.3252]}]]